Location: Alvis C Story Elementary School
(33.0968°N, 96.6364°W)
Time: 18:34:53
(UTC+00:00)

Cosmos 1602 - Visible Passes

Search period start: 03 July 2022 00:00
Search period end: 13 July 2022 00:00
Orbit: 508 x 528 km, 82.5° (Epoch: 02 July)

Date Brightness Start Highest point End Pass type
(mag) Time Alt. Az. Time Alt. Az. Time Alt. Az.
03 Jul 5.3 08:38:28 29° E 08:38:28 29° E 08:41:38 10° NNE visible
03 Jul 5.7 10:13:33 12° W 10:14:07 12° WNW 10:15:48 10° NW visible
04 Jul 5.7 08:24:31 23° ENE 08:24:31 23° ENE 08:27:06 10° NE visible
04 Jul 5.6 09:59:35 15° WNW 09:59:43 15° WNW 10:02:00 10° NW visible
05 Jul 6.1 08:10:32 18° ENE 08:10:32 18° ENE 08:12:31 10° NE visible
05 Jul 5.4 09:45:36 18° WNW 09:45:36 18° WNW 09:48:01 10° NNW visible
06 Jul 6.4 07:56:32 15° ENE 07:56:32 15° ENE 07:57:51 10° NE visible
06 Jul 5.3 09:31:36 21° WNW 09:31:36 21° WNW 09:33:57 10° NNW visible
07 Jul 6.7 07:42:31 11° ENE 07:42:31 11° ENE 07:43:01 10° ENE visible
07 Jul 5.3 09:17:34 23° NW 09:17:34 23° NW 09:19:49 10° NNW visible
08 Jul 5.3 09:03:32 25° NW 09:03:32 25° NW 09:05:38 10° NNW visible
09 Jul 5.4 08:49:28 26° NNW 08:49:28 26° NNW 08:51:25 10° N visible
10 Jul 5.6 08:35:23 25° NNW 08:35:23 25° NNW 08:37:08 10° N visible
11 Jul 5.8 08:21:17 23° N 08:21:17 23° N 08:22:51 10° N visible
12 Jul 6.1 08:07:10 21° N 08:07:10 21° N 08:08:31 10° N visible
